Regional Weather Roundup
Issued by NWS Austin/San Antonio, TX

Home | Current Version | Previous Version | Text Only | Print | Product List | Glossary On
Versions: 1 2 3 4 5 6 7 8 9 10 11 12 13 14 15 16 17 18 19 20 21 22 23 24 25 26 27 28 29 30 31 32 33 34 35 36 37 38 39 40 41 42 43 44 45 46 47 48 49 50
000
ASUS44 KEWX 220802
RWREWX
SOUTH TEXAS REGIONAL WEATHER ROUNDUP
NATIONAL WEATHER SERVICE AUSTIN/SAN ANTONIO TX
300 AM CDT TUE AUG 22 2017

NOTE: "FAIR" INDICATED FEW OR NO CLOUDS BELOW 12,000 FEET WITH NO
SIGNIFICANT WEATHER AND/OR OBSTRUCTIONS TO VISIBILITY.

* - THESE STATIONS ARE NOT NWS OR FAA STATIONS...AND ARE NOT SUBJECT
    TO NWS AND FAA QUALITY CONTROL.

TXZ171-172-183>190-220900-
TEXAS HILL COUNTRY AND EDWARDS PLATEAU

CITY           SKY/WX    TMP DP  RH WIND       PRES   REMARKS
JUNCTION       CLEAR     78  67  68 S6        30.10S
*LLANO         CLEAR     77  70  78 CALM      30.11S
BURNET         CLEAR     79  70  74 S7        30.11F
*HORSESHOE BAY CLEAR     78  69  74 S5        30.08S
*KERRVILLE     CLEAR     76  72  85 SE6       30.11F
*FREDERICKSBRG CLEAR     76  67  74 S3        30.11F
*ROCKSPRINGS   NOT AVBL
*BOERNE STAGE  CLEAR    N/A N/A N/A S6        30.11F
*CASTROVILLE   CLEAR     77  69  75 SE3       30.09F
HONDO          CLEAR     79  72  79 SE6       30.07F
*UVALDE        CLEAR     78  69  74 CALM      30.08S
DEL RIO        CLEAR     82  67  60 SE13      30.03F
LAUGHLIN AFB   CLEAR     81  68  63 SE9       30.05S
CARRIZO SPRGS  PTCLDY    81  70  69 SE10      30.03F
*EAGLE PASS    NOT AVBL
$$

TXZ173-191>194-202-209-217>225-228-220900-
CENTRAL AND SOUTH CENTRAL TEXAS

CITY           SKY/WX    TMP DP  RH WIND       PRES   REMARKS
GEORGETOWN     NOT AVBL
AUSTIN/BERGSTM PTCLDY    77  72  84 S3        30.06F
AUSTIN/MABRY   PTCLDY    80  72  76 CALM      30.08F
*AUSTIN/EXEC   PTCLDY    77  73  88 CALM      30.07F
*LAGO VISTA    CLEAR     78  71  79 S6        30.10F
SAN MARCOS     CLEAR     77  72  84 S3        30.07F
NEW BRAUNFELS  CLEAR     75  71  87 S3        30.05F
RANDOLPH AFB   CLEAR     74  74 100 SE3       30.07F
PT SAN ANTONIO CLEAR     77  73  85 SE6       30.05F
SAN ANTONIO    CLEAR     78  72  81 S6        30.07F
STINSON FIELD  CLEAR     78  73  84 SE3       30.04F
*LA GRANGE     CLEAR     76  75  96 CALM      30.04F
*GIDDINGS      CLEAR     76  72  88 CALM      30.07F
*GONZALES      CLEAR     77  76  98 CALM      30.06F
$$

TXZ163>164-176>182-195>201-210>213-226-227-235-220900-
SOUTHEAST TEXAS

CITY           SKY/WX    TMP DP  RH WIND       PRES   REMARKS
COLLEGE STN    CLEAR     78  73  84 CALM      30.05F
*BRYAN         CLEAR     77  75  96 S3        30.07F
*CALDWELL      NOT AVBL
*CROCKETT      CLEAR     75  73  94 CALM      30.09S
*BRENHAM       CLEAR     77  74  90 CALM      30.05F
HUNTSVILLE     CLEAR     77  72  84 CALM      30.05F
CONROE         CLEAR     73  72  96 CALM      30.04F FOG
HOUSTON BUSH   PTCLDY    77  74  90 CALM      30.03F
HOUSTON HOBBY  PTCLDY    81  74  79 CALM      30.03F
*HOUSTON SW AP CLEAR     73  73  97 CALM      30.04F
PEARLAND       CLEAR     80  74  81 CALM      30.04F
HOUSTON HOOKS  CLEAR     75  73  93 CALM      30.04F
ELLINGTON FLD  NOT AVBL
SUGAR LAND     CLEAR     76  74  93 CALM      30.03F
*HOUSTON EXEC  CLOUDY    75  73  94 CALM      30.05F
*CLEVELAND MUN CLEAR     73  73  97 CALM      30.05F FOG
*WHARTON       CLEAR     73  71  92 CALM      30.04F
*COLUMBUS      FAIR      74  72  93 CALM      30.05F
*EAGLE LAKE    SUNNY     77  77  98 CALM      30.04F
$$

TXZ214>216-236>238-220900-
THE UPPER TEXAS COAST

CITY           SKY/WX    TMP DP  RH WIND       PRES   REMARKS
*ORANGE        CLEAR     76  76 100 CALM      30.05S
PORT ARTHUR    CLEAR     76  74  93 CALM      30.03S
GALVESTON      CLEAR     84  77  79 S8        30.03F HX  94
ANGLETON       CLEAR     76  75  97 CALM      30.03F
*BAY CITY      PTCLDY    76  74  95 CALM      30.03F
PALACIOS       CLEAR     80  75  84 S5        30.02F
$$

TXZ229>234-239>247-220900-
TEXAS COASTAL BEND AND RIO GRANDE PLAINS

CITY           SKY/WX    TMP DP  RH WIND       PRES   REMARKS
VICTORIA       CLEAR     78  74  87 SE5       30.03F
*BEEVILLE      CLEAR    N/A N/A N/A E3        30.04F
ROCKPORT       CLEAR     84  74  71 SE8       30.01F HX  91
*PORT ARANSAS  PTCLDY    82  74  78 S9        30.02F
*PORT LAVACA   CLEAR     77  74  89 CALM      30.03F
*INGLESIDE     CLEAR     82  76  83 MISG      30.02F
CORPUS CHRISTI PTCLDY    78  74  87 SE5       30.02F
CORPUS NAS     CLEAR     83  74  74 SE8       30.01F
*ROBSTOWN      PTCLDY    81  74  80 SE3       30.03F
ALICE          CLEAR     77  74  90 S3        30.02F
KINGSVILLE NAS CLEAR     80  78  94 CALM      30.02F
COTULLA        PTCLDY    79  71  76 SE7       30.04F
LAREDO         PTCLDY    80  73  79 SE8       30.04F
$$

TXZ248>255-220900-
DEEP SOUTH TEXAS

CITY           SKY/WX    TMP DP  RH WIND       PRES   REMARKS
BROWNSVILLE    CLEAR     79  77  94 CALM      30.01F
PORT ISABEL    CLEAR     82  77  84 SE6       30.00F HX  90
*SOUTH PADRE   NOT AVBL
HARLINGEN      CLEAR     78  76  93 CALM      30.01S
*HEBBRONVILLE  CLEAR     75  71  87 CALM      30.06S
MCALLEN        PTCLDY    81  75  82 E5        30.02F
*WESLACO       CLEAR     80  74  83 CALM      30.01F
FALFURRIAS     CLEAR     77  74  90 CALM      30.02F
EDINBURG       CLEAR     79  73  83 CALM      30.02F
*ZAPATA        PTCLDY    79  71  76 E3        30.03S
$$

TXZ213>215-236>238-242>244-246-247-251-254-255-220900-
CMAN STATIONS

STATION/POSITION TIME  TEMP    WIND        PRES    WAVE
                       AIR SEA DIR/SP/G            HT/PER
                 (UTC) (F)     (DEG/KT/KT) (MB)    (FT/S)
SABINE PASS      0724   84 90  170/  4/  5 1018.6
SEA RIM ST PARK  0700   85     180/  4/  5 1017.7
NORTH JETTY/GLS  0724      88  160/  9/ 10 1016.7
EAGLE POINT      0724   84 88  250/  3/  6 1017.2
MORGANS POINT    0724   84 88  230/  4/  5 1017.1
MISSION/ARANSAS  0700          140/ 12     1017.0
PORT O`CONNOR    0724   84     160/ 11/ 13 1016.3
PORT ARANSAS     0700   83 85  130/ 13/ 14 1016.9
MALAQUITE BEACH  0724   83 86  130/ 14/ 16 1015.9
BAFFIN BAY       0724   81 87              1016.8
PORT ISABEL      0724   83 85              1016.3
$$



USA.gov is the U.S. government's official web portal to all federal, state and local government web resources and services.